Time,TemperatureF,DewpointF,PressureIn,WindDirection,WindDirectionDegrees,WindSpeedMPH,WindSpeedGustMPH,Humidity,HourlyPrecipIn,Conditions,Clouds,dailyrainin,SolarRadiationWatts/m^2,SoftwareType,DateUTC
2013-02-22 00:01:00,25.0,23.0,-100.00,East,101,12.0,13.0,93,0.00,,,0.00,0.000000,,2013-02-22 06:01:00,
2013-02-22 00:32:00,25.0,23.0,-100.00,East,101,10.0,16.0,93,0.00,,,0.00,0.000000,,2013-02-22 06:32:00,
2013-02-22 00:42:00,25.0,23.0,-100.00,East,101,10.0,16.0,93,0.00,,,0.00,0.000000,,2013-02-22 06:42:00,
2013-02-22 00:52:00,25.0,23.0,-100.00,East,101,10.0,16.0,93,0.00,,,0.00,0.000000,,2013-02-22 06:52:00,
2013-02-22 01:01:00,25.0,23.0,-100.00,East,101,10.0,16.0,93,0.00,,,0.00,0.000000,,2013-02-22 07:01:00,
2013-02-22 01:32:00,25.0,23.0,-100.00,East,101,12.0,15.0,93,0.00,,,0.00,0.000000,,2013-02-22 07:32:00,
2013-02-22 01:42:00,25.0,23.0,-100.00,East,101,12.0,15.0,93,0.00,,,0.00,0.000000,,2013-02-22 07:42:00,
2013-02-22 01:52:00,25.0,23.0,-100.00,East,101,12.0,15.0,93,0.00,,,0.00,0.000000,,2013-02-22 07:52:00,
2013-02-22 02:01:00,25.0,23.0,-100.00,East,101,12.0,15.0,93,0.00,,,0.00,0.000000,,2013-02-22 08:01:00,
2013-02-22 02:32:00,25.0,23.0,-100.00,ESE,111,13.0,18.0,93,0.00,,,0.00,0.000000,,2013-02-22 08:32:00,
2013-02-22 02:42:00,25.0,23.0,-100.00,ESE,111,13.0,18.0,93,0.00,,,0.00,0.000000,,2013-02-22 08:42:00,
2013-02-22 02:52:00,25.0,23.0,-100.00,ESE,111,13.0,18.0,93,0.00,,,0.00,0.000000,,2013-02-22 08:52:00,
2013-02-22 03:03:00,25.0,23.0,-100.00,ESE,111,13.0,18.0,93,0.00,,,0.00,0.000000,,2013-02-22 09:03:00,
2013-02-22 03:32:00,25.0,24.0,-100.00,ESE,109,9.0,11.0,95,0.00,,,0.00,0.000000,,2013-02-22 09:32:00,
2013-02-22 03:42:00,25.0,24.0,-100.00,ESE,109,9.0,11.0,95,0.00,,,0.00,0.000000,,2013-02-22 09:42:00,
2013-02-22 03:52:00,25.0,24.0,-100.00,ESE,109,9.0,11.0,95,0.00,,,0.00,0.000000,,2013-02-22 09:52:00,
2013-02-22 04:01:00,25.0,24.0,-100.00,ESE,109,9.0,11.0,95,0.00,,,0.00,0.000000,,2013-02-22 10:01:00,
2013-02-22 04:32:00,25.0,24.0,-100.00,ESE,103,8.0,12.0,95,0.00,,,0.00,0.000000,,2013-02-22 10:32:00,
2013-02-22 04:42:00,25.0,24.0,-100.00,ESE,103,8.0,12.0,95,0.00,,,0.00,0.000000,,2013-02-22 10:42:00,
2013-02-22 04:52:00,25.0,24.0,-100.00,ESE,103,8.0,12.0,95,0.00,,,0.00,0.000000,,2013-02-22 10:52:00,
2013-02-22 05:01:00,25.0,24.0,-100.00,ESE,103,8.0,12.0,95,0.00,,,0.00,0.000000,,2013-02-22 11:01:00,
2013-02-22 05:32:00,25.0,24.0,-100.00,ESE,106,9.0,13.0,94,0.00,,,0.00,0.000000,,2013-02-22 11:32:00,
2013-02-22 05:42:00,25.0,24.0,-100.00,ESE,106,9.0,13.0,94,0.00,,,0.00,0.000000,,2013-02-22 11:42:00,
2013-02-22 05:52:00,25.0,24.0,-100.00,ESE,106,9.0,13.0,94,0.00,,,0.00,0.000000,,2013-02-22 11:52:00,
2013-02-22 06:02:00,25.0,24.0,-100.00,ESE,106,9.0,13.0,94,0.00,,,0.00,0.000000,,2013-02-22 12:02:00,
2013-02-22 06:32:00,25.0,24.0,-100.00,ESE,114,9.0,13.0,94,0.00,,,0.00,0.000000,,2013-02-22 12:32:00,
2013-02-22 06:42:00,25.0,24.0,-100.00,ESE,114,9.0,13.0,94,0.00,,,0.00,0.000000,,2013-02-22 12:42:00,
2013-02-22 06:52:00,25.0,24.0,-100.00,ESE,114,9.0,13.0,94,0.00,,,0.00,0.000000,,2013-02-22 12:52:00,
2013-02-22 07:02:00,25.0,24.0,-100.00,ESE,114,9.0,13.0,94,0.00,,,0.00,0.000000,,2013-02-22 13:02:00,
2013-02-22 07:32:00,26.0,25.0,-100.00,SE,125,9.0,14.0,94,0.00,,,-99.99,3.000000,,2013-02-22 13:32:00,
2013-02-22 07:42:00,26.0,25.0,-100.00,SE,125,9.0,14.0,94,0.00,,,-99.99,3.000000,,2013-02-22 13:42:00,
2013-02-22 07:52:00,26.0,25.0,-100.00,SE,125,9.0,14.0,94,0.00,,,-99.99,3.000000,,2013-02-22 13:52:00,
2013-02-22 08:01:00,26.0,25.0,-100.00,SE,125,9.0,14.0,94,0.00,,,-99.99,3.000000,,2013-02-22 14:01:00,
2013-02-22 08:32:00,27.0,26.0,-100.00,SE,131,8.0,12.0,94,0.00,,,0.00,34.000000,,2013-02-22 14:32:00,
2013-02-22 08:42:00,27.0,26.0,-100.00,SE,131,8.0,12.0,94,0.00,,,0.00,34.000000,,2013-02-22 14:42:00,
2013-02-22 08:53:00,27.0,26.0,-100.00,SE,131,8.0,12.0,94,0.00,,,0.00,34.000000,,2013-02-22 14:53:00,
2013-02-22 09:01:00,27.0,26.0,-100.00,SE,131,8.0,12.0,94,0.00,,,0.00,34.000000,,2013-02-22 15:01:00,
2013-02-22 09:32:00,29.0,28.0,-100.00,SE,143,9.0,10.0,95,0.00,,,0.00,73.000000,,2013-02-22 15:32:00,
2013-02-22 09:42:00,29.0,28.0,-100.00,SE,143,9.0,10.0,95,0.00,,,0.00,73.000000,,2013-02-22 15:42:00,
2013-02-22 09:52:00,29.0,28.0,-100.00,SE,143,9.0,10.0,95,0.00,,,0.00,73.000000,,2013-02-22 15:52:00,
2013-02-22 10:01:00,29.0,28.0,-100.00,SE,143,9.0,10.0,95,0.00,,,0.00,73.000000,,2013-02-22 16:01:00,
2013-02-22 10:32:00,31.0,30.0,-100.00,South,172,8.0,9.0,97,0.00,,,0.00,95.000000,,2013-02-22 16:32:00,
2013-02-22 10:42:00,31.0,30.0,-100.00,South,172,8.0,9.0,97,0.00,,,0.00,95.000000,,2013-02-22 16:42:00,
2013-02-22 10:52:00,31.0,30.0,-100.00,South,172,8.0,9.0,97,0.00,,,0.00,95.000000,,2013-02-22 16:52:00,
2013-02-22 11:01:00,31.0,30.0,-100.00,South,172,8.0,9.0,97,0.00,,,0.00,95.000000,,2013-02-22 17:01:00,
2013-02-22 11:32:00,32.0,32.0,-100.00,SSW,204,5.0,9.0,98,0.00,,,0.00,104.000000,,2013-02-22 17:32:00,
2013-02-22 11:42:00,32.0,32.0,-100.00,SSW,204,5.0,9.0,98,0.00,,,0.00,104.000000,,2013-02-22 17:42:00,
2013-02-22 11:52:00,32.0,32.0,-100.00,SSW,204,5.0,9.0,98,0.00,,,0.00,104.000000,,2013-02-22 17:52:00,
2013-02-22 12:01:00,32.0,32.0,-100.00,SSW,204,5.0,9.0,98,0.00,,,0.00,104.000000,,2013-02-22 18:01:00,
2013-02-22 12:32:00,33.0,32.0,-100.00,SW,233,9.0,11.0,98,0.00,,,-99.99,135.000000,,2013-02-22 18:32:00,
2013-02-22 12:42:00,33.0,32.0,-100.00,SW,233,9.0,11.0,98,0.00,,,-99.99,135.000000,,2013-02-22 18:42:00,
2013-02-22 12:52:00,33.0,32.0,-100.00,SW,233,9.0,11.0,98,0.00,,,-99.99,135.000000,,2013-02-22 18:52:00,
2013-02-22 13:01:00,33.0,32.0,-100.00,SW,233,9.0,11.0,98,0.00,,,-99.99,135.000000,,2013-02-22 19:01:00,
2013-02-22 13:31:00,34.0,32.0,-100.00,SW,232,9.0,12.0,93,0.04,,,0.04,233.000000,,2013-02-22 19:31:00,
2013-02-22 13:42:00,34.0,32.0,-100.00,SW,232,9.0,12.0,93,0.04,,,0.04,233.000000,,2013-02-22 19:42:00,
2013-02-22 13:52:00,34.0,32.0,-100.00,SW,232,9.0,12.0,93,0.04,,,0.04,233.000000,,2013-02-22 19:52:00,
2013-02-22 14:01:00,34.0,32.0,-100.00,SW,232,9.0,12.0,93,0.04,,,0.04,233.000000,,2013-02-22 20:01:00,
2013-02-22 14:32:00,35.0,33.0,-100.00,WSW,243,10.0,15.0,91,0.10,,,0.14,151.000000,,2013-02-22 20:32:00,
2013-02-22 14:42:00,35.0,33.0,-100.00,WSW,243,10.0,15.0,91,0.10,,,0.14,151.000000,,2013-02-22 20:42:00,
2013-02-22 14:52:00,35.0,33.0,-100.00,WSW,243,10.0,15.0,91,0.10,,,0.14,151.000000,,2013-02-22 20:52:00,
2013-02-22 15:01:00,35.0,33.0,-100.00,WSW,243,10.0,15.0,91,0.10,,,0.14,151.000000,,2013-02-22 21:01:00,
2013-02-22 15:32:00,35.0,28.0,-100.00,WSW,245,11.0,12.0,76,0.04,,,0.18,170.000000,,2013-02-22 21:32:00,
2013-02-22 15:42:00,35.0,28.0,-100.00,WSW,245,11.0,12.0,76,0.04,,,0.18,170.000000,,2013-02-22 21:42:00,
2013-02-22 15:52:00,35.0,28.0,-100.00,WSW,245,11.0,12.0,76,0.04,,,0.18,170.000000,,2013-02-22 21:52:00,
2013-02-22 16:01:00,35.0,28.0,-100.00,WSW,245,11.0,12.0,76,0.04,,,0.18,170.000000,,2013-02-22 22:01:00,
2013-02-22 16:32:00,32.0,25.0,-100.00,West,261,13.0,24.0,74,0.01,,,0.19,93.000000,,2013-02-22 22:32:00,
2013-02-22 16:42:00,32.0,25.0,-100.00,West,261,13.0,24.0,74,0.01,,,0.19,93.000000,,2013-02-22 22:42:00,
2013-02-22 16:52:00,32.0,25.0,-100.00,West,261,13.0,24.0,74,0.01,,,0.19,93.000000,,2013-02-22 22:52:00,
2013-02-22 17:01:00,32.0,25.0,-100.00,West,261,13.0,24.0,74,0.01,,,0.19,93.000000,,2013-02-22 23:01:00,
2013-02-22 17:32:00,31.0,23.0,-100.00,West,268,10.0,12.0,71,0.00,,,0.19,41.000000,,2013-02-22 23:32:00,
2013-02-22 17:42:00,31.0,23.0,-100.00,West,268,10.0,12.0,71,0.00,,,0.19,41.000000,,2013-02-22 23:42:00,
2013-02-22 17:52:00,31.0,23.0,-100.00,West,268,10.0,12.0,71,0.00,,,0.19,41.000000,,2013-02-22 23:52:00,
2013-02-22 18:01:00,31.0,23.0,-100.00,West,268,10.0,12.0,71,0.00,,,0.19,41.000000,,2013-02-23 00:01:00,
2013-02-22 18:32:00,30.0,22.0,-100.00,WSW,246,10.0,13.0,73,0.00,,,0.19,4.000000,,2013-02-23 00:32:00,
2013-02-22 18:42:00,30.0,22.0,-100.00,WSW,246,10.0,13.0,73,0.00,,,0.19,4.000000,,2013-02-23 00:42:00,
2013-02-22 18:52:00,30.0,22.0,-100.00,WSW,246,10.0,13.0,73,0.00,,,0.19,4.000000,,2013-02-23 00:52:00,
2013-02-22 19:01:00,30.0,22.0,-100.00,WSW,246,10.0,13.0,73,0.00,,,0.19,4.000000,,2013-02-23 01:01:00,
2013-02-22 19:32:00,30.0,24.0,-100.00,WSW,245,8.0,10.0,77,0.00,,,-99.99,0.000000,,2013-02-23 01:32:00,
2013-02-22 19:42:00,30.0,24.0,-100.00,WSW,245,8.0,10.0,77,0.00,,,-99.99,0.000000,,2013-02-23 01:42:00,
2013-02-22 19:52:00,30.0,24.0,-100.00,WSW,245,8.0,10.0,77,0.00,,,-99.99,0.000000,,2013-02-23 01:52:00,
2013-02-22 20:01:00,30.0,24.0,-100.00,WSW,245,8.0,10.0,77,0.00,,,-99.99,0.000000,,2013-02-23 02:01:00,
2013-02-22 20:32:00,29.0,22.0,-100.00,WSW,247,9.0,11.0,76,0.00,,,0.19,0.000000,,2013-02-23 02:32:00,
2013-02-22 20:42:00,29.0,22.0,-100.00,WSW,247,9.0,11.0,76,0.00,,,0.19,0.000000,,2013-02-23 02:42:00,
2013-02-22 20:52:00,29.0,22.0,-100.00,WSW,247,9.0,11.0,76,0.00,,,0.19,0.000000,,2013-02-23 02:52:00,
2013-02-22 21:01:00,29.0,22.0,-100.00,WSW,247,9.0,11.0,76,0.00,,,0.19,0.000000,,2013-02-23 03:01:00,
2013-02-22 21:32:00,29.0,24.0,-100.00,WSW,243,10.0,16.0,80,0.00,,,0.19,0.000000,,2013-02-23 03:32:00,
2013-02-22 21:42:00,29.0,24.0,-100.00,WSW,243,10.0,16.0,80,0.00,,,0.19,0.000000,,2013-02-23 03:42:00,
2013-02-22 21:52:00,29.0,24.0,-100.00,WSW,243,10.0,16.0,80,0.00,,,0.19,0.000000,,2013-02-23 03:52:00,
2013-02-22 22:01:00,29.0,24.0,-100.00,WSW,243,10.0,16.0,80,0.00,,,0.19,0.000000,,2013-02-23 04:01:00,
2013-02-22 22:32:00,28.0,22.0,-100.00,WSW,249,11.0,14.0,78,0.00,,,0.19,0.000000,,2013-02-23 04:32:00,
2013-02-22 22:42:00,28.0,22.0,-100.00,WSW,249,11.0,14.0,78,0.00,,,0.19,0.000000,,2013-02-23 04:42:00,
2013-02-22 22:52:00,28.0,22.0,-100.00,WSW,249,11.0,14.0,78,0.00,,,0.19,0.000000,,2013-02-23 04:52:00,
2013-02-22 23:03:00,28.0,22.0,-100.00,WSW,249,11.0,14.0,78,0.00,,,0.19,0.000000,,2013-02-23 05:03:00,
2013-02-22 23:33:00,28.0,22.0,-100.00,WSW,251,8.0,14.0,79,0.00,,,0.19,0.000000,,2013-02-23 05:33:00,
2013-02-22 23:42:00,28.0,22.0,-100.00,WSW,251,8.0,14.0,79,0.00,,,0.19,0.000000,,2013-02-23 05:42:00,
2013-02-22 23:52:00,28.0,22.0,-100.00,WSW,251,8.0,14.0,79,0.00,,,0.19,0.000000,,2013-02-23 05:52:00,